Jonesboro, AR

7:16 PM CDT on May 22, 2018 (GMT -0500)
Jonesboro Municipal

Weather History for KJBR - March, 2013

Change the Weather History Date:

Monday, March 18, 2013

  Actual Average Record
Temperature  
Mean Temperature 47 °F 51 °F  
Max Temperature 57 °F 61 °F 88 °F (1921)
Min Temperature 37 °F 41 °F 24 °F (1941)
Degree Days  
Heating Degree Days 18 14  
Month to date heating degree days 346 305  
Since 1 July heating degree days 2974 3261  
Cooling Degree Days 0 0  
Month to date cooling degree days 0 0  
Year to date cooling degree days 0 0  
Moisture  
Dew Point 43 °F    
Average Humidity 76    
Maximum Humidity 92    
Minimum Humidity 59    
Precipitation  
Precipitation 0.03 in 0.15 in 3.21 in (1953)
Month to date precipitation 0.59 2.52  
Year to date precipitation 10.38 9.67  
Snow  
Snow 0.00 in - - ()
Month to date snowfall 0.0  
Snow Depth 0.00 in    
Sea Level Pressure  
Sea Level Pressure 29.80 in    
Wind  
Wind Speed 7 mph (NW)    
Max Wind Speed 17 mph    
Max Gust Speed 25 mph    
Visibility 10 miles    
Events Rain , Thunderstorm    
T = Trace of Precipitation, MM = Missing Value Source: NWS Daily Summary

Daily Weather History Graph

Daily Weather History Graph

Search for Another Location

Airport or City:

Astronomy

Mar. 18, 2013 Rise Set
Actual Time 7:08 AM CDT 7:12 PM CDT
Civil Twilight 6:43 AM CDT 7:38 PM CDT
Nautical Twilight 6:13 AM CDT 8:08 PM CDT
Astronomical Twilight 5:43 AM CDT 8:38 PM CDT
Moon 11:19 AM CDT (3/18) 1:01 AM CDT (3/18)
Length of Visible Light 12h 55m
Length of Day
12h 04m
Waxing Crescent, 41% of the Moon is Illuminated
Mar 18
Waxing Crescent
Mar 19
First Quarter
Mar 27
Full
Apr 2
Last Quarter
Apr 10
New

Hourly Weather History & Observations

Time (CDT) Temp. Windchill Dew Point Humidity Pressure Visibility Wind Dir Wind Speed Gust Speed Precip Events Conditions
12:13 AM 44.6 °F 38.8 °F 44.6 °F 100% 29.72 in 3.0 mi NNW 11.5 mph - 0.00 in Rain Light Rain
12:53 AM 45.0 °F 40.6 °F 44.1 °F 97% 29.72 in 5.0 mi NNW 8.1 mph - 0.00 in Rain Light Rain
1:29 AM 44.6 °F 42.2 °F 42.8 °F 93% 29.71 in 9.0 mi NNW 4.6 mph - 0.00 in Thunderstorm Overcast
1:53 AM 45.0 °F 43.5 °F 43.0 °F 93% 29.71 in 10.0 mi Variable 3.5 mph - 0.00 in Thunderstorm Overcast
1:57 AM 44.6 °F - 42.8 °F 93% 29.72 in 10.0 mi Calm Calm - N/A Thunderstorm Overcast
2:43 AM 44.6 °F 42.2 °F 42.8 °F 93% 29.71 in 7.0 mi North 4.6 mph - N/A Rain Light Rain
2:53 AM 45.0 °F 42.6 °F 43.0 °F 93% 29.71 in 10.0 mi North 4.6 mph - 0.02 in   Overcast
3:29 AM 44.6 °F 43.1 °F 42.8 °F 93% 29.72 in 10.0 mi North 3.5 mph - 0.00 in Rain , Thunderstorm Light Rain
3:53 AM 45.0 °F 42.6 °F 43.0 °F 93% 29.72 in 10.0 mi NNE 4.6 mph - 0.00 in   Overcast
4:07 AM 44.6 °F 43.1 °F 42.8 °F 93% 29.72 in 10.0 mi NE 3.5 mph - N/A   Overcast
4:26 AM 44.6 °F 41.4 °F 42.8 °F 93% 29.70 in 10.0 mi East 5.8 mph - 0.01 in Rain , Thunderstorm Light Rain
4:53 AM 45.0 °F - 43.0 °F 93% 29.71 in 10.0 mi Calm Calm - 0.01 in Thunderstorm Overcast
5:09 AM 44.6 °F 42.2 °F 42.8 °F 93% 29.71 in 10.0 mi SE 4.6 mph - N/A   Overcast
5:53 AM 45.0 °F 41.8 °F 43.0 °F 93% 29.75 in 10.0 mi WNW 5.8 mph - N/A   Overcast
6:03 AM 46.4 °F 41.1 °F 44.6 °F 93% 29.76 in 10.0 mi WNW 11.5 mph - 0.00 in Rain Light Rain
6:36 AM 44.6 °F 42.2 °F 42.8 °F 93% 29.75 in 10.0 mi West 4.6 mph - 0.00 in   Mostly Cloudy
6:53 AM 44.1 °F 42.5 °F 42.1 °F 93% 29.74 in 10.0 mi West 3.5 mph - 0.00 in   Scattered Clouds
7:53 AM 45.0 °F 40.6 °F 43.0 °F 93% 29.75 in 8.0 mi SW 8.1 mph - N/A   Clear
8:53 AM 48.0 °F - 44.1 °F 86% 29.76 in 10.0 mi West 5.8 mph - 0.00 in   Clear
9:53 AM 53.1 °F - 46.0 °F 77% 29.80 in 10.0 mi WNW 12.7 mph - N/A   Clear
10:17 AM 53.6 °F - 46.4 °F 77% 29.79 in 10.0 mi WNW 9.2 mph - N/A   Mostly Cloudy
10:53 AM 51.1 °F - 46.0 °F 83% 29.83 in 10.0 mi NW 13.8 mph 19.6 mph N/A   Overcast
11:05 AM 51.8 °F - 46.4 °F 82% 29.83 in 10.0 mi NW 12.7 mph 21.9 mph N/A   Overcast
11:53 AM 50.0 °F - 44.1 °F 80% 29.82 in 10.0 mi NNW 8.1 mph - N/A   Overcast
12:53 PM 51.1 °F - 44.1 °F 77% 29.80 in 10.0 mi North 5.8 mph - N/A   Overcast
1:20 PM 51.8 °F - 44.6 °F 76% 29.82 in 10.0 mi WNW 10.4 mph - N/A   Overcast
1:53 PM 53.1 °F - 45.0 °F 74% 29.81 in 10.0 mi NNW 12.7 mph - N/A   Mostly Cloudy
2:53 PM 54.0 °F - 45.0 °F 72% 29.82 in 10.0 mi NW 13.8 mph 23.0 mph N/A   Overcast
3:53 PM 55.9 °F - 45.0 °F 67% 29.83 in 10.0 mi NNW 11.5 mph 18.4 mph N/A   Overcast
4:45 PM 57.2 °F - 42.8 °F 59% 29.85 in 10.0 mi NNW 11.5 mph 19.6 mph N/A   Mostly Cloudy
4:53 PM 55.9 °F - 43.0 °F 62% 29.86 in 10.0 mi NNW 12.7 mph - N/A   Mostly Cloudy
5:53 PM 55.9 °F - 42.1 °F 60% 29.88 in 10.0 mi North 9.2 mph - N/A   Partly Cloudy
6:53 PM 53.1 °F - 39.9 °F 61% 29.91 in 10.0 mi NNW 5.8 mph - N/A   Clear
7:53 PM 48.0 °F - 39.9 °F 74% 29.94 in 10.0 mi Calm Calm - N/A   Clear
8:53 PM 46.9 °F - 39.0 °F 74% 29.97 in 10.0 mi NW 4.6 mph - N/A   Clear
9:53 PM 48.0 °F - 36.0 °F 63% 30.00 in 10.0 mi NNW 5.8 mph - N/A   Clear
10:53 PM 44.1 °F 42.5 °F 35.1 °F 71% 30.03 in 10.0 mi NW 3.5 mph - N/A   Clear
11:53 PM 41.0 °F 39.0 °F 35.1 °F 79% 30.06 in 10.0 mi West 3.5 mph - N/A   Clear